Location: Martin
(32.0982°N, 93.2193°W)
Time: 04:13:08
(UTC+00:00)

ARIANE 6 FM1 Upper Stage - Pass Details

Date: 27 September 2024
Orbit: 563 x 594 km, 62.0° (Epoch: 11 October)

Event Time Altitude Azimuth Distance (km) Brightness Sun altitude
Rises 01:02:39 0° 260° (W) 2,770 7.8 -13.4°
Reaches altitude 10° 01:06:15 10° 292° (WNW) 1,885 6.6 -14.1°
Maximum altitude 01:07:54 12° 315° (NW) 1,763 6.0 -14.5°
Drops below altitude 10° 01:09:35 10° 338° (NNW) 1,897 5.7 -14.8°
Sets 01:13:14 0° 10° (N) 2,810 6.2 -15.6°
